TimeEST,TemperatureF,Dew PointF,Humidity,Sea Level PressureIn,VisibilityMPH,Wind Direction,Wind SpeedMPH,Gust SpeedMPH,PrecipitationIn,Events,Conditions,WindDirDegrees,DateUTC
12:53 AM,34.0,25.0,70,30.19,10.0,Calm,Calm,-,N/A,,Overcast,0,2012-11-06 05:53:00
1:53 AM,34.0,21.0,59,30.20,10.0,NE,8.1,-,N/A,,Overcast,50,2012-11-06 06:53:00
2:53 AM,32.0,21.0,64,30.19,10.0,NE,8.1,-,N/A,,Mostly Cloudy,40,2012-11-06 07:53:00
3:53 AM,30.0,21.0,69,30.19,10.0,NE,5.8,-,N/A,,Overcast,40,2012-11-06 08:53:00
4:53 AM,30.0,19.9,66,30.19,10.0,Calm,Calm,-,N/A,,Clear,0,2012-11-06 09:53:00
5:53 AM,28.9,19.0,67,30.20,10.0,ENE,3.5,-,N/A,,Clear,60,2012-11-06 10:53:00
6:53 AM,28.9,19.0,67,30.21,10.0,Calm,Calm,-,N/A,,Clear,0,2012-11-06 11:53:00
7:53 AM,30.0,21.9,72,30.23,9.0,Calm,Calm,-,N/A,,Clear,0,2012-11-06 12:53:00
8:53 AM,35.1,21.0,57,30.23,10.0,NE,5.8,-,N/A,,Clear,50,2012-11-06 13:53:00
9:53 AM,36.0,19.9,52,30.23,10.0,East,5.8,-,N/A,,Clear,80,2012-11-06 14:53:00
10:53 AM,37.9,19.9,48,30.22,10.0,East,6.9,-,N/A,,Scattered Clouds,100,2012-11-06 15:53:00
11:53 AM,39.0,19.9,46,30.20,10.0,East,8.1,-,N/A,,Mostly Cloudy,90,2012-11-06 16:53:00
12:53 PM,39.9,21.0,47,30.17,10.0,East,8.1,-,N/A,,Mostly Cloudy,90,2012-11-06 17:53:00
1:53 PM,39.9,21.9,49,30.14,10.0,ENE,5.8,-,N/A,,Overcast,70,2012-11-06 18:53:00
2:53 PM,39.9,23.0,51,30.14,10.0,SE,4.6,-,N/A,,Overcast,130,2012-11-06 19:53:00
3:53 PM,39.9,24.1,53,30.12,10.0,ENE,4.6,-,N/A,,Overcast,60,2012-11-06 20:53:00
4:53 PM,39.0,25.0,57,30.12,10.0,ESE,4.6,-,N/A,,Overcast,110,2012-11-06 21:53:00
5:53 PM,37.9,27.0,65,30.12,10.0,ENE,4.6,-,N/A,,Overcast,70,2012-11-06 22:53:00
6:53 PM,36.0,25.0,64,30.11,10.0,NE,4.6,-,N/A,,Overcast,50,2012-11-06 23:53:00
7:53 PM,35.1,24.1,64,30.08,10.0,NE,6.9,-,N/A,,Clear,50,2012-11-07 00:53:00
8:53 PM,36.0,24.1,62,30.08,10.0,NE,5.8,-,N/A,,Overcast,50,2012-11-07 01:53:00
9:53 PM,35.1,25.0,67,30.09,10.0,ENE,3.5,-,N/A,,Overcast,70,2012-11-07 02:53:00
10:53 PM,34.0,27.0,75,30.08,10.0,NE,3.5,-,N/A,,Scattered Clouds,50,2012-11-07 03:53:00
11:53 PM,34.0,24.1,67,30.06,10.0,NE,4.6,-,N/A,,Clear,50,2012-11-07 04:53:00